Time,TemperatureF,DewpointF,PressureIn,WindDirection,WindDirectionDegrees,WindSpeedMPH,WindSpeedGustMPH,Humidity,HourlyPrecipIn,Conditions,Clouds,dailyrainin,SoftwareType,DateUTC
2014-01-23 00:02:00,0.5,-19.7,30.01,NW,315,3.8,6.0,37,0.00,,,0.00,meteobridge,2014-01-23 05:02:00,
2014-01-23 00:12:00,0.5,-20.2,30.01,North,0,2.2,3.8,36,0.00,,,0.00,meteobridge,2014-01-23 05:12:00,
2014-01-23 00:22:00,0.5,-20.2,30.00,NW,315,4.5,4.5,36,0.00,,,0.00,meteobridge,2014-01-23 05:22:00,
2014-01-23 00:32:00,0.7,-20.0,30.00,NW,315,6.0,6.0,36,0.00,,,0.00,meteobridge,2014-01-23 05:32:00,
2014-01-23 00:42:00,0.7,-20.0,30.01,WNW,293,4.5,4.5,36,0.00,,,0.00,meteobridge,2014-01-23 05:42:00,
2014-01-23 00:53:00,0.7,-20.6,30.01,NW,315,5.4,5.4,35,0.00,,,0.00,meteobridge,2014-01-23 05:53:00,
2014-01-23 01:03:00,0.7,-20.0,30.01,North,0,4.5,4.5,36,0.00,,,0.00,meteobridge,2014-01-23 06:03:00,
2014-01-23 01:13:00,0.9,-19.8,30.01,West,270,5.4,7.6,36,0.00,,,0.00,meteobridge,2014-01-23 06:13:00,
2014-01-23 01:23:00,1.0,-20.2,30.01,NW,315,4.5,9.2,35,0.00,,,0.00,meteobridge,2014-01-23 06:23:00,
2014-01-23 01:33:00,1.0,-20.2,30.01,NW,315,3.1,3.8,35,0.00,,,0.00,meteobridge,2014-01-23 06:33:00,
2014-01-23 01:43:00,0.9,-20.4,30.01,NW,315,2.2,3.1,35,0.00,,,0.00,meteobridge,2014-01-23 06:43:00,
2014-01-23 01:53:00,0.9,-20.4,30.01,North,0,1.6,4.5,35,0.00,,,0.00,meteobridge,2014-01-23 06:53:00,
2014-01-23 02:03:00,0.7,-21.1,30.01,NW,315,4.5,4.5,34,0.00,,,0.00,meteobridge,2014-01-23 07:03:00,
2014-01-23 02:13:00,0.7,-21.1,30.01,WNW,293,3.1,3.1,34,0.00,,,0.00,meteobridge,2014-01-23 07:13:00,
2014-01-23 02:24:00,0.7,-21.1,30.01,NNW,338,2.2,3.8,34,0.00,,,0.00,meteobridge,2014-01-23 07:24:00,
2014-01-23 02:34:00,0.5,-20.7,30.00,NE,45,0.7,3.1,35,0.00,,,0.00,meteobridge,2014-01-23 07:34:00,
2014-01-23 02:44:00,0.1,-21.1,30.00,SE,135,0.7,3.8,35,0.00,,,0.00,meteobridge,2014-01-23 07:44:00,
2014-01-23 02:54:00,0.0,-21.8,30.01,North,0,1.6,1.6,34,0.00,,,0.00,meteobridge,2014-01-23 07:54:00,
2014-01-23 03:04:00,-0.2,-21.3,30.01,North,0,1.6,1.6,35,0.00,,,0.00,meteobridge,2014-01-23 08:04:00,
2014-01-23 03:14:00,-0.2,-21.3,30.01,NW,315,0.7,0.7,35,0.00,,,0.00,meteobridge,2014-01-23 08:14:00,
2014-01-23 03:24:00,-0.4,-21.5,30.01,North,0,1.6,1.6,35,0.00,,,0.00,meteobridge,2014-01-23 08:24:00,
2014-01-23 03:34:00,-0.8,-20.7,30.01,NNE,23,3.1,3.1,37,0.00,,,0.00,meteobridge,2014-01-23 08:34:00,
2014-01-23 03:44:00,-0.9,-20.4,30.02,NE,45,0.7,1.6,38,0.00,,,0.00,meteobridge,2014-01-23 08:44:00,
2014-01-23 03:54:00,-1.1,-20.0,30.02,NW,315,0.7,1.6,39,0.00,,,0.00,meteobridge,2014-01-23 08:54:00,
2014-01-23 04:05:00,-1.3,-19.8,30.02,North,0,0.0,0.7,40,0.00,,,0.00,meteobridge,2014-01-23 09:05:00,
2014-01-23 04:15:00,-1.3,-19.3,30.02,NE,45,0.7,2.2,41,0.00,,,0.00,meteobridge,2014-01-23 09:15:00,
2014-01-23 04:25:00,-1.3,-18.8,30.01,North,0,0.7,1.6,42,0.00,,,0.00,meteobridge,2014-01-23 09:25:00,
2014-01-23 04:35:00,-1.5,-18.9,30.01,North,0,0.7,1.6,42,0.00,,,0.00,meteobridge,2014-01-23 09:35:00,
2014-01-23 04:45:00,-1.1,-18.8,30.02,NE,45,0.7,1.6,42,0.00,,,0.00,meteobridge,2014-01-23 09:45:00,
2014-01-23 04:55:00,-0.9,-18.6,30.02,NW,315,0.7,1.6,42,0.00,,,0.00,meteobridge,2014-01-23 09:55:00,
2014-01-23 05:05:00,-0.8,-18.4,30.02,North,0,0.7,0.7,42,0.00,,,0.00,meteobridge,2014-01-23 10:05:00,
2014-01-23 05:15:00,-0.6,-18.2,30.02,North,0,0.7,0.7,42,0.00,,,0.00,meteobridge,2014-01-23 10:15:00,
2014-01-23 05:25:00,-0.4,-18.4,30.03,North,0,0.7,2.2,41,0.00,,,0.00,meteobridge,2014-01-23 10:25:00,
2014-01-23 05:35:00,-0.4,-18.4,30.03,NW,315,0.7,2.2,41,0.00,,,0.00,meteobridge,2014-01-23 10:35:00,
2014-01-23 05:46:00,-0.4,-18.4,30.03,North,0,0.7,0.7,41,0.00,,,0.00,meteobridge,2014-01-23 10:46:00,
2014-01-23 05:56:00,-0.4,-18.4,30.03,North,0,0.7,0.7,41,0.00,,,0.00,meteobridge,2014-01-23 10:56:00,
2014-01-23 06:06:00,-0.4,-18.4,30.04,NW,315,1.6,1.6,41,0.00,,,0.00,meteobridge,2014-01-23 11:06:00,
2014-01-23 06:16:00,-0.2,-18.4,30.04,NW,315,5.4,5.4,41,0.00,,,0.00,meteobridge,2014-01-23 11:16:00,
2014-01-23 06:26:00,0.5,-17.7,30.05,West,270,2.2,3.1,41,0.00,,,0.00,meteobridge,2014-01-23 11:26:00,
2014-01-23 06:36:00,1.0,-17.1,30.04,NW,315,2.2,3.1,41,0.00,,,0.00,meteobridge,2014-01-23 11:36:00,
2014-01-23 06:46:00,1.2,-17.0,30.05,West,270,2.2,3.1,41,0.00,,,0.00,meteobridge,2014-01-23 11:46:00,
2014-01-23 06:56:00,1.4,-15.0,30.05,NW,315,2.2,2.2,45,0.00,,,0.00,meteobridge,2014-01-23 11:56:00,
2014-01-23 07:06:00,1.6,-14.8,30.05,NW,315,3.1,3.1,45,0.00,,,0.00,meteobridge,2014-01-23 12:06:00,
2014-01-23 07:17:00,1.4,-15.0,30.05,North,0,2.2,2.2,45,0.00,,,0.00,meteobridge,2014-01-23 12:17:00,
2014-01-23 07:27:00,1.4,-15.0,30.06,North,0,1.6,2.2,45,0.00,,,0.00,meteobridge,2014-01-23 12:27:00,
2014-01-23 07:37:00,1.2,-17.0,30.06,East,90,1.6,1.6,41,0.00,,,0.00,meteobridge,2014-01-23 12:37:00,
2014-01-23 07:47:00,1.4,-15.0,30.06,NE,45,2.2,2.2,45,0.00,,,0.00,meteobridge,2014-01-23 12:47:00,
2014-01-23 07:57:00,1.8,-14.6,30.06,NW,315,1.6,1.6,45,0.00,,,0.00,meteobridge,2014-01-23 12:57:00,
2014-01-23 08:07:00,1.9,-14.4,30.07,NW,315,0.7,2.2,45,0.00,,,0.00,meteobridge,2014-01-23 13:07:00,
2014-01-23 08:17:00,2.3,-14.3,30.07,NE,45,2.2,2.2,45,0.00,,,0.00,meteobridge,2014-01-23 13:17:00,
2014-01-23 08:27:00,2.8,-13.2,30.07,NE,45,2.2,3.1,46,0.00,,,0.00,meteobridge,2014-01-23 13:27:00,
2014-01-23 08:37:00,3.2,-13.4,30.07,NW,315,0.7,0.7,45,0.00,,,0.00,meteobridge,2014-01-23 13:37:00,
2014-01-23 08:47:00,3.9,-12.6,30.07,NE,45,1.6,1.6,45,0.00,,,0.00,meteobridge,2014-01-23 13:47:00,
2014-01-23 08:58:00,4.5,-12.3,30.07,North,0,1.6,2.2,45,0.00,,,0.00,meteobridge,2014-01-23 13:58:00,
2014-01-23 09:08:00,5.0,-12.1,30.07,NW,315,1.6,1.6,44,0.00,,,0.00,meteobridge,2014-01-23 14:08:00,
2014-01-23 09:18:00,5.7,-11.6,30.07,North,0,1.6,1.6,44,0.00,,,0.00,meteobridge,2014-01-23 14:18:00,
2014-01-23 09:28:00,6.3,-11.0,30.07,West,270,1.6,3.8,44,0.00,,,0.00,meteobridge,2014-01-23 14:28:00,
2014-01-23 09:38:00,6.6,-10.7,30.07,West,270,5.4,5.4,44,0.00,,,0.00,meteobridge,2014-01-23 14:38:00,
2014-01-23 09:48:00,7.7,-10.1,30.07,West,270,10.7,10.7,43,0.00,,,0.00,meteobridge,2014-01-23 14:48:00,
2014-01-23 09:58:00,8.6,-10.3,30.07,NW,315,5.4,7.6,41,0.00,,,0.00,meteobridge,2014-01-23 14:58:00,
2014-01-23 10:08:00,9.0,-9.9,30.07,WNW,293,13.0,13.0,41,0.00,,,0.00,meteobridge,2014-01-23 15:08:00,
2014-01-23 10:18:00,9.0,-9.9,30.07,NW,315,7.6,7.6,41,0.00,,,0.00,meteobridge,2014-01-23 15:18:00,
2014-01-23 10:28:00,9.3,-11.2,30.07,West,270,9.8,9.8,38,0.00,,,0.00,meteobridge,2014-01-23 15:28:00,
2014-01-23 10:39:00,10.2,-10.8,30.07,West,270,6.0,6.9,37,0.00,,,0.00,meteobridge,2014-01-23 15:39:00,
2014-01-23 10:49:00,10.8,-9.4,30.07,SW,225,11.4,13.0,39,0.00,,,0.00,meteobridge,2014-01-23 15:49:00,
2014-01-23 10:59:00,11.5,-9.2,30.07,WNW,293,7.6,9.8,38,0.00,,,0.00,meteobridge,2014-01-23 15:59:00,
2014-01-23 11:09:00,11.5,-9.8,30.06,West,270,6.0,6.0,37,0.00,,,0.00,meteobridge,2014-01-23 16:09:00,
2014-01-23 11:19:00,12.2,-9.6,30.06,West,270,7.6,7.6,36,0.00,,,0.00,meteobridge,2014-01-23 16:19:00,
2014-01-23 11:29:00,13.1,-9.4,30.05,West,270,6.0,8.3,35,0.00,,,0.00,meteobridge,2014-01-23 16:29:00,
2014-01-23 11:39:00,13.6,-8.9,30.05,West,270,7.6,7.6,35,0.00,,,0.00,meteobridge,2014-01-23 16:39:00,
2014-01-23 11:49:00,14.0,-9.8,30.05,NW,315,10.7,10.7,33,0.00,,,0.00,meteobridge,2014-01-23 16:49:00,
2014-01-23 11:59:00,13.8,-8.9,30.04,WNW,293,7.6,14.5,35,0.00,,,0.00,meteobridge,2014-01-23 16:59:00,
2014-01-23 12:10:00,14.5,-8.7,30.04,NW,315,9.8,10.7,34,0.00,,,0.00,meteobridge,2014-01-23 17:10:00,
2014-01-23 12:20:00,14.4,-9.6,30.03,WNW,293,11.4,18.3,33,0.00,,,0.00,meteobridge,2014-01-23 17:20:00,
2014-01-23 12:30:00,14.9,-9.0,30.03,West,270,8.3,10.7,33,0.00,,,0.00,meteobridge,2014-01-23 17:30:00,
2014-01-23 12:40:00,15.6,-8.3,30.03,WNW,293,13.0,13.0,33,0.00,,,0.00,meteobridge,2014-01-23 17:40:00,
2014-01-23 12:50:00,15.1,-9.4,30.03,NW,315,9.8,12.1,32,0.00,,,0.00,meteobridge,2014-01-23 17:50:00,
2014-01-23 13:00:00,15.4,-8.5,30.04,NW,315,16.8,16.8,33,0.00,,,0.00,meteobridge,2014-01-23 18:00:00,
2014-01-23 13:10:00,16.0,-8.7,30.03,West,270,10.7,13.6,32,0.00,,,0.00,meteobridge,2014-01-23 18:10:00,
2014-01-23 13:20:00,15.6,-9.6,30.03,SW,225,18.3,18.3,31,0.00,,,0.00,meteobridge,2014-01-23 18:20:00,
2014-01-23 13:30:00,15.6,-9.0,30.04,NW,315,9.8,14.5,32,0.00,,,0.00,meteobridge,2014-01-23 18:30:00,
2014-01-23 13:40:00,15.8,-9.6,30.04,NW,315,10.7,14.5,31,0.00,,,0.00,meteobridge,2014-01-23 18:40:00,
2014-01-23 13:51:00,16.2,-9.8,32.05,SW,225,6.9,9.8,30,0.00,,,0.00,meteobridge,2014-01-23 18:51:00,
2014-01-23 14:01:00,15.8,-10.8,30.04,NW,315,6.9,12.1,29,0.00,,,0.00,meteobridge,2014-01-23 19:01:00,
2014-01-23 14:11:00,16.0,-9.9,30.05,NW,315,13.0,13.6,30,0.00,,,0.00,meteobridge,2014-01-23 19:11:00,
2014-01-23 14:21:00,16.0,-9.9,30.05,NW,315,12.1,12.1,30,0.00,,,0.00,meteobridge,2014-01-23 19:21:00,
2014-01-23 14:31:00,16.3,-10.3,30.06,WNW,293,9.8,12.1,29,0.00,,,0.00,meteobridge,2014-01-23 19:31:00,
2014-01-23 14:41:00,16.2,-10.5,30.06,West,270,8.3,9.2,29,0.00,,,0.00,meteobridge,2014-01-23 19:41:00,
2014-01-23 14:51:00,14.9,-11.6,30.07,West,270,8.3,8.3,29,0.00,,,0.00,meteobridge,2014-01-23 19:51:00,
2014-01-23 15:01:00,14.5,-11.2,30.07,West,270,13.6,13.6,30,0.00,,,0.00,meteobridge,2014-01-23 20:01:00,
2014-01-23 15:11:00,14.4,-11.4,30.08,NW,315,16.8,16.8,30,0.00,,,0.00,meteobridge,2014-01-23 20:11:00,
2014-01-23 15:21:00,14.2,-11.6,30.08,NW,315,6.9,10.7,30,0.00,,,0.00,meteobridge,2014-01-23 20:21:00,
2014-01-23 15:32:00,14.0,-11.0,30.09,NW,315,9.2,13.0,31,0.00,,,0.00,meteobridge,2014-01-23 20:32:00,
2014-01-23 15:42:00,14.2,-10.8,30.09,West,270,13.0,13.0,31,0.00,,,0.00,meteobridge,2014-01-23 20:42:00,
2014-01-23 15:52:00,14.0,-10.5,30.10,WNW,293,8.3,8.3,32,0.00,,,0.00,meteobridge,2014-01-23 20:52:00,
2014-01-23 16:02:00,14.0,-9.8,30.10,North,0,14.5,14.5,33,0.00,,,0.00,meteobridge,2014-01-23 21:02:00,
2014-01-23 16:12:00,14.0,-9.8,30.11,West,270,9.2,9.2,33,0.00,,,0.00,meteobridge,2014-01-23 21:12:00,
2014-01-23 16:22:00,13.8,-9.4,30.11,NW,315,7.6,13.0,34,0.00,,,0.00,meteobridge,2014-01-23 21:22:00,
2014-01-23 16:32:00,13.6,-8.9,30.11,NW,315,9.8,9.8,35,0.00,,,0.00,meteobridge,2014-01-23 21:32:00,
2014-01-23 16:42:00,13.5,-8.5,30.12,NW,315,9.8,11.4,36,0.00,,,0.00,meteobridge,2014-01-23 21:42:00,
2014-01-23 16:52:00,13.3,-9.2,30.12,West,270,4.5,6.9,35,0.00,,,0.00,meteobridge,2014-01-23 21:52:00,
2014-01-23 17:03:00,13.1,-9.4,30.13,West,270,6.9,6.9,35,0.00,,,0.00,meteobridge,2014-01-23 22:03:00,
2014-01-23 17:13:00,12.9,-9.6,30.13,WNW,293,5.4,6.0,35,0.00,,,0.00,meteobridge,2014-01-23 22:13:00,
2014-01-23 17:23:00,12.7,-9.2,30.13,West,270,2.2,6.0,36,0.00,,,0.00,meteobridge,2014-01-23 22:23:00,
2014-01-23 17:33:00,12.4,-8.9,30.14,NW,315,6.9,6.9,37,0.00,,,0.00,meteobridge,2014-01-23 22:33:00,
2014-01-23 17:43:00,12.2,-8.5,30.14,West,270,6.9,6.9,38,0.00,,,0.00,meteobridge,2014-01-23 22:43:00,
2014-01-23 17:53:00,12.0,-7.2,30.14,North,0,3.1,6.9,41,0.00,,,0.00,meteobridge,2014-01-23 22:53:00,
2014-01-23 18:03:00,11.7,-7.1,30.15,West,270,4.5,4.5,42,0.00,,,0.00,meteobridge,2014-01-23 23:03:00,
2014-01-23 18:13:00,11.7,-6.5,30.15,SW,225,5.4,5.4,43,0.00,,,0.00,meteobridge,2014-01-23 23:13:00,
2014-01-23 18:23:00,11.5,-5.8,30.15,NW,315,6.9,6.9,45,0.00,,,0.00,meteobridge,2014-01-23 23:23:00,
2014-01-23 18:33:00,11.3,-6.0,30.16,NW,315,1.6,3.1,45,0.00,,,0.00,meteobridge,2014-01-23 23:33:00,
2014-01-23 18:44:00,11.1,-6.2,30.16,West,270,3.1,3.1,45,0.00,,,0.00,meteobridge,2014-01-23 23:44:00,
2014-01-23 18:54:00,11.1,-6.2,30.16,West,270,5.4,5.4,45,0.00,,,0.00,meteobridge,2014-01-23 23:54:00,
2014-01-23 19:04:00,11.3,-6.0,30.16,NNW,338,6.0,6.0,45,0.00,,,0.00,meteobridge,2014-01-24 00:04:00,
2014-01-23 19:14:00,11.3,-6.0,30.16,West,270,5.4,6.9,45,0.00,,,0.00,meteobridge,2014-01-24 00:14:00,
2014-01-23 19:24:00,11.3,-6.0,30.17,West,270,6.9,6.9,45,0.00,,,0.00,meteobridge,2014-01-24 00:24:00,
2014-01-23 19:34:00,11.3,-6.0,30.17,WNW,293,4.5,6.9,45,0.00,,,0.00,meteobridge,2014-01-24 00:34:00,
2014-01-23 19:44:00,11.3,-5.4,30.17,West,270,7.6,11.4,46,0.00,,,0.00,meteobridge,2014-01-24 00:44:00,
2014-01-23 19:54:00,11.3,-5.4,30.18,West,270,6.9,6.9,46,0.00,,,0.00,meteobridge,2014-01-24 00:54:00,
2014-01-23 20:04:00,11.1,-5.3,30.18,West,270,3.1,5.4,47,0.00,,,0.00,meteobridge,2014-01-24 01:04:00,
2014-01-23 20:14:00,10.9,-4.9,30.18,NW,315,11.4,11.4,48,0.00,,,0.00,meteobridge,2014-01-24 01:14:00,
2014-01-23 20:25:00,10.8,-5.1,30.18,NW,315,7.6,7.6,48,0.00,,,0.00,meteobridge,2014-01-24 01:25:00,
2014-01-23 20:35:00,10.8,-5.1,30.18,WNW,293,6.0,6.0,48,0.00,,,0.00,meteobridge,2014-01-24 01:35:00,
2014-01-23 20:45:00,10.4,-5.4,30.18,SW,225,5.4,6.9,48,0.00,,,0.00,meteobridge,2014-01-24 01:45:00,
2014-01-23 20:55:00,10.4,-5.4,30.19,West,270,5.4,5.4,48,0.00,,,0.00,meteobridge,2014-01-24 01:55:00,
2014-01-23 21:05:00,10.0,-7.6,30.19,NW,315,8.3,8.3,44,0.00,,,0.00,meteobridge,2014-01-24 02:05:00,
2014-01-23 21:15:00,9.9,-7.2,30.19,North,0,7.6,8.3,45,0.00,,,0.00,meteobridge,2014-01-24 02:15:00,
2014-01-23 21:25:00,9.7,-7.8,30.19,West,270,3.1,13.0,44,0.00,,,0.00,meteobridge,2014-01-24 02:25:00,
2014-01-23 21:35:00,9.5,-8.0,30.19,NW,315,5.4,7.6,44,0.00,,,0.00,meteobridge,2014-01-24 02:35:00,
2014-01-23 21:45:00,9.1,-8.3,30.20,West,270,6.9,9.8,44,0.00,,,0.00,meteobridge,2014-01-24 02:45:00,
2014-01-23 21:55:00,9.0,-8.5,30.20,NW,315,9.8,10.7,44,0.00,,,0.00,meteobridge,2014-01-24 02:55:00,
2014-01-23 22:06:00,8.8,-8.7,30.20,WNW,293,6.0,6.0,44,0.00,,,0.00,meteobridge,2014-01-24 03:06:00,
2014-01-23 22:16:00,8.6,-8.9,30.20,WNW,293,7.6,7.6,44,0.00,,,0.00,meteobridge,2014-01-24 03:16:00,
2014-01-23 22:26:00,8.4,-8.5,30.21,West,270,8.3,8.3,45,0.00,,,0.00,meteobridge,2014-01-24 03:26:00,
2014-01-23 22:36:00,8.1,-8.9,30.22,NW,315,3.8,9.2,45,0.00,,,0.00,meteobridge,2014-01-24 03:36:00,
2014-01-23 22:46:00,7.9,-9.0,30.21,West,270,5.4,5.4,45,0.00,,,0.00,meteobridge,2014-01-24 03:46:00,
2014-01-23 22:56:00,7.7,-9.2,30.21,West,270,6.0,6.0,45,0.00,,,0.00,meteobridge,2014-01-24 03:56:00,
2014-01-23 23:06:00,7.5,-9.4,30.22,SW,225,2.2,4.5,45,0.00,,,0.00,meteobridge,2014-01-24 04:06:00,
2014-01-23 23:16:00,7.3,-9.0,30.22,NW,315,4.5,4.5,46,0.00,,,0.00,meteobridge,2014-01-24 04:16:00,
2014-01-23 23:26:00,7.2,-9.2,30.22,West,270,4.5,4.5,46,0.00,,,0.00,meteobridge,2014-01-24 04:26:00,
2014-01-23 23:37:00,7.0,-9.4,30.22,South,180,7.6,9.8,46,0.00,,,0.00,meteobridge,2014-01-24 04:37:00,
2014-01-23 23:47:00,6.8,-9.6,30.22,West,270,3.8,8.3,46,0.00,,,0.00,meteobridge,2014-01-24 04:47:00,
2014-01-23 23:57:00,6.6,-9.4,30.22,West,270,6.0,6.0,47,0.00,,,0.00,meteobridge,2014-01-24 04:57:00,